Tracking 32139 objects as of 16-Nov-2025
HD Live streaming from Space Station
objects crossing your sky now

THORAD AGENA D DEB

Track THORAD AGENA D DEB now!
10-day predictions


NORAD ID: 5690
Int'l Code: 1970-025LV
Perigee: 1,037.6 km
Apogee: 1,109.7 km
Inclination: 100.2 °
Period: 106.5 minutes
Semi major axis: 7444 km
RCS: 0.0072 m2 (small)
Launch date: April 8, 1970
Source: United States (US)
Launch site: AIR FORCE WESTERN TEST RANGE (AFWTR)

Note: This is SATELLITE DEBRIS
Your satellite tracking list
Your tracking list is empty




NASA's NSSDC Master Catalog

Two Line Element Set (TLE):
1  5690U 70025LV  25319.48167094  .00000230  00000-0  42203-3 0  9992
2  5690 100.1980 324.3981 0048414 240.4831 277.3135 13.51560408737518
Source of the keplerian elements: AFSPC